[[{"header":{"parameterUnit":"m.s-1","parameterCategory":2,"la1":30.2991,"la2":30.254,"lo1":-89.0895,"lo2":-89.0444,"dy":0.0017,"dx":0.0017,"nx":28,"ny":28,"refTime":"2023-08-24T03:00:00:Z","depth":"0","parameterNumber":2,"parameterNumberName":"U-component_of_CURRENTS"},"data":[0,0,0,0,0,0,0,0,0,0,0,0,0,0,0,0,0,0,0,0,0,0,0,0,0,0,0,0,0,0,0,0,0,0,0,0,0,0,0,0,0,0,0,0,0,0,0,0,0,0,0,0,0,0,0,0,0,0,0.3467,0.3466,0,0.3467,0.3467,0.3467,0.3491,0.3491,0.3492,0.3492,0.3464,0.3463,0.3462,0,0,0,0,0,0,0,0,0,0,0,0,0,0.3436,0.3436,0.3467,0.3466,0.3466,0.3467,0.3467,0.3467,0.3491,0.3491,0.3492,0.3492,0.3465,0.3463,0.3462,0,0,0,0,0,0,0,0,0,0,0,0,0,0.3446,0.3437,0.3467,0.3476,0.3477,0.3467,0.3467,0.3467,0.3491,0.3491,0.3492,0.3493,0.3465,0.3464,0.3462,0.3439,0,0,0.3457,0.3456,0,0,0,0,0,0,0,0,0.3445,0.3447,0.3475,0.3476,0.3476,0.3478,0.3446,0.3456,0.3491,0.3488,0.3492,0.3493,0.3464,0.3463,0.3465,0.3438,0.3437,0.3457,0.3456,0.3455,0.3454,0,0,0,0,0,0,0,0.3445,0.3447,0.3469,0.3475,0.3476,0.3463,0.3466,0.3448,0.3474,0.3488,0.3489,0.3486,0.3465,0.3467,0.3464,0.3436,0.3457,0.3455,0.3454,0.3453,0.3445,0.3446,0,0,0,0,0,0,0.3442,0.3447,0.3469,0.3469,0.346,0.3463,0.3467,0.3478,0.3475,0.3474,0.3485,0.3487,0.3469,0.3466,0.3463,0.35,0.3455,0.3453,0.3452,0.3445,0.3445,0.3446,0,0,0,0,0,0,0.3442,0.3445,0.3469,0.3455,0.3457,0.3463,0.3476,0.3478,0.3485,0.3472,0.3472,0.3491,0.347,0.3466,0.3452,0.3497,0.3453,0.3451,0.3444,0.3445,0.3446,0.3532,0,0,0,0,0,0,0.3441,0.3445,0.3446,0.3455,0.3458,0.3482,0.3475,0.3478,0.348,0.3483,0.3476,0.3474,0.347,0.3455,0.3451,0.3493,0.345,0.3443,0.3444,0.3446,0.3528,0.3536,0.3542,0,0,0,0,0,0.3441,0.345,0.3447,0.3449,0.3462,0.3483,0.3484,0.349,0.348,0.3496,0.3479,0.3475,0.3463,0.3453,0.3448,0.3492,0.3442,0.3444,0.3445,0.3525,0.3534,0.3542,0,0,0,0,0,0,0.3437,0.3453,0.345,0.3463,0.3477,0.3487,0.3496,0.3489,0.3488,0.3484,0.3469,0.3466,0.348,0.346,0.345,0.3493,0.3458,0.3459,0.352,0.3528,0.3536,0.3546,0.3448,0,0,0,0,0,0.3434,0.3449,0.346,0.3471,0.3482,0.3484,0.3488,0.3492,0.3491,0.3492,0.3484,0.3476,0.3482,0.3482,0.3479,0.3485,0.3491,0.3513,0.3521,0.3527,0.3531,0.3576,0.3588,0.3452,0.3452,0.3452,0,0,0.3435,0.3443,0.3451,0.3471,0.3483,0.35,0.3491,0.3507,0.352,0.3486,0.35,0.3495,0.3486,0.351,0.3515,0.35,0.357,0.3529,0.3535,0.3536,0.3579,0.3592,0.3604,0.3453,0.3453,0.3453,0,0,0.3445,0.3457,0.3472,0.3489,0.3504,0.351,0.3515,0.3527,0.354,0.3545,0.3534,0.355,0.3542,0.3561,0.3565,0.3602,0.3606,0.3605,0.3654,0.3698,0.371,0.3721,0.3758,0.3772,0.3612,0.3612,0.3612,0,0.3438,0.346,0.3479,0.3499,0.3511,0.3517,0.3534,0.3552,0.3554,0.3568,0.3562,0.3583,0.3576,0.3618,0.364,0.3624,0.3641,0.3626,0.3711,0.3721,0.373,0.3766,0.378,0.3616,0.3616,0.3615,0.3615,0,0.3457,0.3477,0.3494,0.3521,0.354,0.3559,0.3585,0.3603,0.361,0.3626,0.3668,0.3668,0.3687,0.3698,0.368,0.3749,0.3738,0.3716,0.3695,0.375,0.3783,0.3796,0.3622,0.3621,0.3619,0.3618,0,0,0.3431,0.3492,0.3494,0.3518,0.3551,0.3572,0.3608,0.3646,0.3678,0.3702,0.3752,0.3778,0.3787,0.3791,0.3788,0.3825,0.3913,0.3803,0.3803,0.3851,0.4013,0.3917,0.3921,0.391,0.3913,0.3915,0.4015,0,0.3433,0.3471,0.3501,0.3543,0.357,0.3602,0.3639,0.3677,0.3714,0.3767,0.3802,0.3847,0.3823,0.3847,0.3884,0.3906,0.3948,0.3887,0.3942,0.3943,0.386,0.3933,0.3737,0.3801,0.4027,0.4029,0.4031,0,0.343,0.3459,0.3495,0.3565,0.3582,0.3611,0.3677,0.3712,0.3791,0.3825,0.3883,0.3913,0.3984,0.395,0.4038,0.4002,0.4015,0.4027,0.4031,0.3917,0.387,0.3778,0.3815,0.3725,0.405,0.4048,0.4047,0,0.3394,0.3456,0.3484,0.3506,0.3581,0.3615,0.3656,0.3729,0.3769,0.3871,0.3916,0.3999,0.4052,0.4093,0.4119,0.4093,0.4205,0.4171,0.4098,0.4091,0.3921,0.3894,0.388,0.4231,0.4231,0.4231,0.423,0,0.3377,0.34,0.3477,0.3496,0.3537,0.3607,0.3662,0.3716,0.3808,0.386,0.3947,0.4006,0.4091,0.4157,0.4165,0.4176,0.4249,0.4123,0.4116,0.3943,0.3919,0.3825,0.3775,0.4234,0.4234,0.4233,0.4232,0,0.3324,0.3371,0.3411,0.3497,0.352,0.3552,0.3645,0.3691,0.3789,0.3864,0.3903,0.404,0.4128,0.419,0.427,0.4228,0.4121,0.4226,0.4014,0.3979,0.3789,0.375,0.36,0.3505,0.4167,0.4166,0.4164,0,0.3295,0.3313,0.339,0.3409,0.3447,0.3506,0.3542,0.3652,0.3709,0.3865,0.3903,0.4036,0.4089,0.4184,0.4142,0.415,0.4058,0.3976,0.3877,0.3765,0.3719,0.3594,0.3517,0.3701,0.3695,0.3691,0.3688,0,0.3242,0.3273,0.3311,0.3351,0.3393,0.343,0.3509,0.3546,0.3677,0.3735,0.3838,0.3902,0.3989,0.3914,0.393,0.3908,0.3762,0.3888,0.3829,0.3399,0.3204,0.3112,0.366,0.365,0.3654,0.3657,0.3659,0.366,0.3198,0.321,0.3269,0.329,0.3324,0.3353,0.334,0.3429,0.3477,0.3521,0.3684,0.3678,0.3702,0.3683,0.3645,0.3462,0.3484,0.3348,0.3332,0.3234,0.3056,0.3518,0.3457,0.3459,0.3461,0.3463,0.3465,0,0.3129,0.3164,0.3202,0.3223,0.3199,0.3254,0.3298,0.3256,0.3237,0.3318,0.3351,0.3307,0.3227,0.3228,0.3084,0.2939,0.2815,0.2864,0.2655,0.2626,0.3091,0.2985,0.2745,0.2745,0.2745,0.2746,0.2746,0.2746,0.3106,0.3109,0.3132,0.3084,0.3079,0.3003,0.2984,0.294,0.2959,0.2863,0.2794,0.2817,0.2899,0.2822,0.2655,0.2581,0.2403,0.2237,0.2303,0.2644,0.2688,0.273,0.2621,0.2309,0.2308,0.1713,0.1709,0.1705]},{"header":{"parameterUnit":"m.s-1","parameterCategory":2,"la1":30.2991,"la2":30.254,"lo1":-89.0895,"lo2":-89.0444,"dy":0.0017,"dx":0.0017,"nx":28,"ny":28,"refTime":"2023-08-24T03:00:00:Z","depth":"0","parameterNumber":3,"parameterNumberName":"V-component_of_CURRENTS"},"data":[0,0,0,0,0,0,0,0,0,0,0,0,0,0,0,0,0,0,0,0,0,0,0,0,0,0,0,0,0,0,0,0,0,0,0,0,0,0,0,0,0,0,0,0,0,0,0,0,0,0,0,0,0,0,0,0,0,0,0.0301,0.03,0,0.0262,0.0262,0.0261,0.0224,0.0224,0.0223,0.0223,0.0183,0.0182,0.0181,0,0,0,0,0,0,0,0,0,0,0,0,0,0.0315,0.0315,0.0301,0.03,0.03,0.0262,0.0262,0.0261,0.0224,0.0224,0.0223,0.0223,0.0183,0.0182,0.0181,0,0,0,0,0,0,0,0,0,0,0,0,0,0.0295,0.0315,0.0301,0.0278,0.0275,0.0262,0.0261,0.0261,0.0224,0.0224,0.0223,0.0223,0.0183,0.0182,0.0181,0.0186,0,0,0.0178,0.0178,0,0,0,0,0,0,0,0,0.0296,0.0295,0.0281,0.0279,0.0277,0.0248,0.0252,0.0236,0.0225,0.0243,0.0223,0.0222,0.0205,0.0203,0.0195,0.0184,0.0183,0.0178,0.0177,0.0177,0.0176,0,0,0,0,0,0,0,0.0298,0.0296,0.0284,0.0281,0.0278,0.026,0.0257,0.0248,0.0227,0.0241,0.0239,0.0236,0.0204,0.0197,0.0194,0.0182,0.0178,0.0177,0.0176,0.0176,0.0175,0.0175,0,0,0,0,0,0,0.0306,0.0297,0.0286,0.0283,0.0286,0.026,0.0256,0.0257,0.0227,0.0222,0.0236,0.0234,0.0199,0.0195,0.0193,0.0216,0.0177,0.0176,0.0175,0.0174,0.0175,0.0176,0,0,0,0,0,0,0.0307,0.0306,0.0287,0.029,0.0286,0.0261,0.0262,0.0257,0.025,0.0224,0.0219,0.0235,0.0198,0.0194,0.0195,0.0213,0.0175,0.0174,0.0174,0.0174,0.0175,0.025,0,0,0,0,0,0,0.0308,0.0306,0.0311,0.0291,0.0287,0.0291,0.0262,0.0256,0.025,0.0247,0.0221,0.0217,0.0197,0.0197,0.0194,0.0211,0.0174,0.0173,0.0174,0.0175,0.0247,0.0253,0.0259,0,0,0,0,0,0.0308,0.0321,0.0312,0.031,0.0294,0.0292,0.0289,0.0267,0.025,0.0257,0.0239,0.0217,0.0201,0.0197,0.0193,0.021,0.0172,0.0174,0.0175,0.0244,0.0252,0.0259,0,0,0,0,0,0,0.0331,0.0318,0.0307,0.0315,0.0309,0.0286,0.0291,0.0273,0.0263,0.0259,0.0229,0.0225,0.023,0.021,0.0205,0.0212,0.0182,0.0182,0.0235,0.0243,0.0249,0.0279,0.0173,0,0,0,0,0,0.0338,0.0345,0.0329,0.0337,0.0337,0.0314,0.031,0.0296,0.0283,0.0277,0.0258,0.024,0.0233,0.023,0.0218,0.0226,0.0216,0.0232,0.0239,0.0244,0.0265,0.0267,0.0276,0.018,0.018,0.018,0,0,0.0349,0.0344,0.0346,0.0343,0.0335,0.0347,0.0311,0.0312,0.0324,0.0276,0.0286,0.0262,0.024,0.0248,0.0248,0.0234,0.0263,0.0246,0.0251,0.027,0.0269,0.0279,0.0287,0.0181,0.0181,0.0181,0,0,0.0379,0.0371,0.0388,0.0388,0.0384,0.0374,0.0377,0.0359,0.0354,0.036,0.0328,0.0321,0.0305,0.0296,0.029,0.0324,0.0295,0.031,0.037,0.037,0.0379,0.0386,0.0379,0.0385,0.0315,0.0315,0.0315,0,0.0392,0.0412,0.0394,0.0413,0.0423,0.0391,0.0416,0.041,0.0393,0.0402,0.0375,0.0363,0.0334,0.0357,0.0362,0.034,0.0332,0.0345,0.0381,0.0387,0.0394,0.0385,0.039,0.0318,0.0318,0.0318,0.0317,0,0.0436,0.0453,0.0467,0.0482,0.049,0.0507,0.0499,0.0504,0.049,0.0482,0.0497,0.046,0.0458,0.0438,0.0411,0.044,0.0417,0.0388,0.0367,0.0408,0.0395,0.04,0.0324,0.0323,0.0321,0.032,0,0,0.0466,0.0493,0.0498,0.0524,0.0529,0.0545,0.057,0.0591,0.0622,0.0596,0.0639,0.0605,0.0583,0.0574,0.0534,0.0526,0.0546,0.0481,0.0479,0.0483,0.0548,0.0514,0.0516,0.0524,0.0526,0.0527,0.0519,0,0.0509,0.0563,0.0563,0.0621,0.0651,0.0643,0.0676,0.0688,0.0691,0.0723,0.0692,0.0711,0.0637,0.0641,0.0624,0.0576,0.0564,0.0551,0.0499,0.0498,0.0471,0.0522,0.0504,0.0494,0.0523,0.0524,0.0525,0,0.0554,0.0586,0.0649,0.0704,0.0718,0.075,0.0807,0.0832,0.0859,0.0863,0.0871,0.0847,0.0846,0.0771,0.072,0.0717,0.0644,0.0592,0.0589,0.0542,0.0475,0.0457,0.0501,0.0387,0.0532,0.0531,0.053,0,0.0594,0.065,0.0707,0.0724,0.0774,0.0814,0.0845,0.0879,0.0925,0.0962,0.1004,0.098,0.0997,0.091,0.0796,0.0766,0.0735,0.0676,0.0576,0.0572,0.0539,0.053,0.0478,0.0639,0.0639,0.0639,0.0639,0,0.0644,0.0691,0.0735,0.077,0.0852,0.0869,0.0961,0.0984,0.1046,0.1132,0.1086,0.1157,0.1034,0.0997,0.0861,0.0748,0.0785,0.0609,0.0579,0.0562,0.0555,0.0439,0.0356,0.0639,0.0639,0.0639,0.0639,0,0.0683,0.0707,0.0778,0.0845,0.0875,0.0936,0.104,0.1107,0.1151,0.1268,0.1293,0.1311,0.1276,0.1128,0.1005,0.0852,0.065,0.0666,0.0651,0.062,0.0408,0.0329,0.0246,0.0195,0.0566,0.0565,0.0565,0,0.071,0.0748,0.0834,0.0886,0.0924,0.1016,0.1087,0.1153,0.1238,0.1377,0.145,0.1462,0.1501,0.13,0.1033,0.0801,0.066,0.0607,0.0538,0.0418,0.0307,0.0258,0.0218,0.0518,0.0517,0.0516,0.0516,0,0.0763,0.0789,0.085,0.0951,0.1035,0.1136,0.125,0.1336,0.1442,0.1559,0.1717,0.1766,0.159,0.1374,0.1035,0.0855,0.0518,0.0584,0.0471,0.0286,0.0219,0.0149,0.0493,0.0509,0.051,0.051,0.0511,0.0511,0.0803,0.0852,0.0929,0.1028,0.1125,0.1258,0.136,0.1499,0.1668,0.1863,0.1899,0.1997,0.1658,0.1217,0.0961,0.0475,0.048,0.0316,0.0236,0.0204,0.0138,0.0467,0.0437,0.0438,0.0438,0.0438,0.0438,0,0.0849,0.0909,0.1004,0.1127,0.124,0.1285,0.1469,0.1589,0.1808,0.1985,0.2123,0.1998,0.1582,0.1144,0.0476,0.017,0.0072,0.0015,-0.0059,-0.0078,0.0228,0.0208,0.0115,0.0115,0.0115,0.0115,0.0116,0.0116,0.0878,0.0969,0.1018,0.1203,0.1297,0.1462,0.1573,0.1764,0.1921,0.2129,0.218,0.2182,0.1831,0.0725,0.0009,-0.0146,-0.0312,-0.037,-0.0437,-0.0243,-0.022,-0.0199,-0.0235,-0.0419,-0.042,-0.0698,-0.0701,-0.0704]}],[{"header":{"parameterUnit":"m.s-1","parameterCategory":2,"la1":30.2991,"la2":30.254,"lo1":-89.0895,"lo2":-89.0444,"dy":0.0017,"dx":0.0017,"nx":28,"ny":28,"refTime":"2023-08-24T03:00:00:Z","depth":"2","parameterNumber":2,"parameterNumberName":"U-component_of_CURRENTS"},"data":[0,0,0,0,0,0,0,0,0,0,0,0,0,0,0,0,0,0,0,0,0,0,0,0,0,0,0,0,0,0,0,0,0,0,0,0,0,0,0,0,0,0,0,0,0,0,0,0,0,0,0,0,0,0,0,0,0,0,0.2508,0.2509,0,0.2532,0.2532,0.2532,0.251,0.2509,0.2509,0.2509,0.256,0.2562,0.2563,0,0,0,0,0,0,0,0,0,0,0,0,0,0.2487,0.2486,0.2508,0.2509,0.251,0.2532,0.2532,0.2532,0.251,0.2509,0.2509,0.2509,0.2559,0.2561,0.2563,0,0,0,0,0,0,0,0,0,0,0,0,0,0.2495,0.2486,0.2508,0.2507,0.2507,0.2532,0.2532,0.2531,0.251,0.2509,0.2509,0.2509,0.2559,0.2561,0.2564,0.2585,0,0,0.2571,0.2572,0,0,0,0,0,0,0,0,0.2495,0.2495,0.2506,0.2507,0.2508,0.2524,0.2544,0.2553,0.251,0.2501,0.2509,0.2508,0.2555,0.2558,0.2553,0.2588,0.259,0.2571,0.2572,0.2573,0.2574,0,0,0,0,0,0,0,0.2494,0.2494,0.251,0.2507,0.2508,0.2521,0.2521,0.2545,0.2525,0.2502,0.2502,0.2516,0.2555,0.255,0.2554,0.2591,0.2571,0.2573,0.2575,0.2575,0.2634,0.2634,0,0,0,0,0,0,0.2503,0.2493,0.251,0.2512,0.2508,0.2522,0.2521,0.2513,0.2524,0.2527,0.2517,0.2516,0.2547,0.2551,0.2556,0.262,0.2573,0.2576,0.2577,0.2634,0.2634,0.2634,0,0,0,0,0,0,0.2502,0.2504,0.2509,0.251,0.2513,0.2523,0.2514,0.2514,0.2524,0.2536,0.2538,0.2529,0.2546,0.2553,0.258,0.2621,0.2577,0.2579,0.2633,0.2634,0.2634,0.2725,0,0,0,0,0,0,0.2501,0.2502,0.2509,0.251,0.2513,0.2525,0.2515,0.2515,0.2536,0.2534,0.2548,0.2551,0.2547,0.2576,0.2582,0.2623,0.2581,0.2633,0.2633,0.2634,0.2722,0.2728,0.2734,0,0,0,0,0,0.25,0.2508,0.2508,0.2511,0.2517,0.2526,0.2527,0.253,0.2537,0.2537,0.2548,0.2551,0.2581,0.2579,0.2586,0.2628,0.2633,0.2633,0.2634,0.2719,0.2727,0.2734,0,0,0,0,0,0,0.2502,0.2508,0.2507,0.2516,0.2523,0.2525,0.2535,0.2544,0.2552,0.2559,0.2563,0.2566,0.261,0.2594,0.2591,0.2638,0.2605,0.2606,0.2667,0.2675,0.2681,0.2678,0.2583,0,0,0,0,0,0.2508,0.2511,0.2518,0.2526,0.253,0.2537,0.2548,0.2553,0.2562,0.2565,0.2578,0.2589,0.2613,0.2624,0.2637,0.2668,0.2672,0.2692,0.2698,0.2703,0.2701,0.2746,0.2757,0.2635,0.2635,0.2635,0,0,0.2512,0.2518,0.2519,0.2527,0.253,0.2543,0.254,0.256,0.2578,0.2574,0.2602,0.2623,0.2627,0.2661,0.2677,0.2656,0.2741,0.2704,0.2709,0.2704,0.2747,0.276,0.2771,0.2635,0.2635,0.2635,0,0,0.252,0.2522,0.2527,0.2539,0.256,0.2562,0.2574,0.2589,0.2598,0.2631,0.2639,0.2679,0.2699,0.2717,0.2728,0.2772,0.2779,0.2772,0.2802,0.2846,0.2858,0.2868,0.2902,0.2914,0.2767,0.2768,0.2768,0,0.2528,0.2526,0.2532,0.2548,0.2559,0.2574,0.2584,0.2603,0.2629,0.2654,0.2646,0.2712,0.2728,0.2783,0.2794,0.2793,0.2807,0.2785,0.2859,0.2868,0.2877,0.2909,0.2922,0.2772,0.2771,0.2771,0.2771,0,0.2538,0.2544,0.255,0.2564,0.2581,0.2592,0.2619,0.2655,0.2677,0.2699,0.2763,0.2781,0.2816,0.2835,0.2831,0.2902,0.289,0.2875,0.2851,0.2896,0.2926,0.2937,0.2778,0.2777,0.2775,0.2774,0,0,0.2528,0.2547,0.2553,0.2563,0.2588,0.2605,0.2651,0.269,0.2736,0.2774,0.2824,0.2879,0.2897,0.2907,0.292,0.2956,0.3045,0.294,0.294,0.2992,0.3141,0.3045,0.3048,0.3048,0.305,0.3052,0.3143,0,0.2525,0.2545,0.2559,0.2586,0.2591,0.2633,0.2674,0.2731,0.2766,0.2825,0.2874,0.2933,0.292,0.2959,0.299,0.3045,0.3076,0.3021,0.3072,0.3073,0.2999,0.3058,0.2811,0.2863,0.3154,0.3156,0.3157,0,0.2518,0.2536,0.2548,0.2594,0.2604,0.2631,0.2706,0.2749,0.284,0.2884,0.2945,0.298,0.3066,0.3034,0.3137,0.3104,0.312,0.3146,0.315,0.3033,0.2998,0.286,0.2872,0.3176,0.3174,0.3173,0.3172,0,0.2492,0.2527,0.2532,0.2546,0.2606,0.264,0.2681,0.2767,0.2816,0.2928,0.2984,0.3065,0.3124,0.3171,0.3217,0.3195,0.3308,0.3285,0.3208,0.3202,0.2984,0.2954,0.3335,0.3335,0.3335,0.3335,0.3334,0,0.246,0.248,0.2524,0.2539,0.2584,0.2629,0.2687,0.2766,0.2852,0.2916,0.3006,0.3067,0.3162,0.3226,0.3249,0.3266,0.3338,0.3225,0.3223,0.3006,0.2979,0.3232,0.3218,0.3338,0.3337,0.3337,0.3336,0,0.2408,0.244,0.2465,0.2533,0.2566,0.2597,0.2688,0.2723,0.2838,0.2924,0.2975,0.3102,0.3204,0.3266,0.3357,0.3306,0.3343,0.3318,0.3053,0.3016,0.32,0.3191,0.3262,0.326,0.3258,0.3256,0.3254,0,0.2378,0.238,0.2454,0.2478,0.2503,0.2561,0.2597,0.2711,0.2744,0.2933,0.2959,0.3106,0.3156,0.3251,0.323,0.3254,0.3316,0.3007,0.2909,0.3204,0.3196,0.3189,0.3182,0.2669,0.2663,0.2658,0.2653,0,0.2324,0.2348,0.2369,0.2415,0.2452,0.2488,0.2545,0.2583,0.2716,0.2792,0.2895,0.2965,0.3062,0.2969,0.2993,0.2967,0.2988,0.2903,0.33,0.2715,0.2649,0.2639,0.2651,0.2608,0.2613,0.2616,0.2619,0.262,0.2289,0.2282,0.2311,0.2333,0.2382,0.2395,0.2381,0.244,0.2495,0.2575,0.2725,0.2741,0.2776,0.2692,0.2611,0.2551,0.2757,0.262,0.2635,0.2654,0.2559,0.2491,0.2404,0.2407,0.241,0.2413,0.2415,0,0.2216,0.2216,0.2231,0.2244,0.2227,0.2301,0.2322,0.2269,0.2266,0.2379,0.2431,0.2272,0.2215,0.2262,0.2102,0.2084,0.2049,0.1992,0.193,0.1978,0.2019,0.1889,0.1558,0.1555,0.1552,0.155,0,0,0.2188,0.2159,0.2141,0.2078,0.2096,0.2029,0.2018,0.1975,0.1998,0.1975,0.1972,0.2144,0.2217,0.1877,0.1818,0.1662,0.1804,0.1591,0.2286,0.2263,0.2301,0.2396,0.2252,0,0,0,0,0]},{"header":{"parameterUnit":"m.s-1","parameterCategory":2,"la1":30.2991,"la2":30.254,"lo1":-89.0895,"lo2":-89.0444,"dy":0.0017,"dx":0.0017,"nx":28,"ny":28,"refTime":"2023-08-24T03:00:00:Z","depth":"2","parameterNumber":3,"parameterNumberName":"V-component_of_CURRENTS"},"data":[0,0,0,0,0,0,0,0,0,0,0,0,0,0,0,0,0,0,0,0,0,0,0,0,0,0,0,0,0,0,0,0,0,0,0,0,0,0,0,0,0,0,0,0,0,0,0,0,0,0,0,0,0,0,0,0,0,0,0.0174,0.0174,0,0.0149,0.0149,0.0149,0.0127,0.0127,0.0126,0.0126,0.0095,0.0094,0.0094,0,0,0,0,0,0,0,0,0,0,0,0,0,0.018,0.018,0.0174,0.0174,0.0174,0.0149,0.0149,0.0149,0.0127,0.0127,0.0126,0.0126,0.0095,0.0094,0.0093,0,0,0,0,0,0,0,0,0,0,0,0,0,0.0167,0.018,0.0174,0.0161,0.0159,0.015,0.0149,0.0149,0.0127,0.0127,0.0126,0.0126,0.0095,0.0094,0.0093,0.0092,0,0,0.009,0.009,0,0,0,0,0,0,0,0,0.0168,0.0167,0.0163,0.0161,0.016,0.0142,0.0139,0.013,0.0127,0.0138,0.0126,0.0126,0.0111,0.0108,0.0103,0.0091,0.009,0.009,0.009,0.0089,0.0089,0,0,0,0,0,0,0,0.0169,0.0168,0.0163,0.0163,0.0161,0.0148,0.0146,0.0137,0.0125,0.0137,0.0136,0.0134,0.011,0.0104,0.0102,0.0089,0.009,0.0089,0.0089,0.0088,0.0076,0.0077,0,0,0,0,0,0,0.0176,0.0169,0.0164,0.0163,0.0164,0.0148,0.0146,0.0147,0.0126,0.0122,0.0135,0.0134,0.0106,0.0103,0.0101,0.0112,0.0089,0.0088,0.0088,0.0076,0.0076,0.0077,0,0,0,0,0,0,0.0176,0.0175,0.0165,0.0166,0.0164,0.0149,0.015,0.0147,0.0143,0.0124,0.012,0.0134,0.0106,0.0102,0.0101,0.011,0.0088,0.0087,0.0076,0.0076,0.0077,0.0125,0,0,0,0,0,0,0.0176,0.0176,0.018,0.0166,0.0164,0.0167,0.015,0.0146,0.0143,0.0141,0.0122,0.0119,0.0105,0.0102,0.01,0.0108,0.0086,0.0075,0.0076,0.0076,0.0123,0.0127,0.013,0,0,0,0,0,0.0176,0.0185,0.018,0.018,0.017,0.0168,0.0166,0.0153,0.0143,0.0147,0.0135,0.012,0.0104,0.0102,0.0099,0.0107,0.0075,0.0076,0.0076,0.0121,0.0126,0.013,0,0,0,0,0,0,0.0188,0.0183,0.0178,0.0184,0.018,0.0165,0.0168,0.0157,0.0149,0.0147,0.0126,0.0123,0.0123,0.0108,0.0107,0.0104,0.0085,0.0086,0.0121,0.0125,0.0129,0.0146,0.0085,0,0,0,0,0,0.0193,0.02,0.0191,0.0197,0.0197,0.0182,0.018,0.0171,0.0162,0.0158,0.0144,0.013,0.0123,0.0119,0.0109,0.011,0.0092,0.0111,0.0115,0.0118,0.013,0.0111,0.0114,0.0079,0.0079,0.0079,0,0,0.0198,0.0198,0.0201,0.02,0.0196,0.0204,0.018,0.0181,0.0189,0.0157,0.0162,0.0144,0.0126,0.0128,0.0126,0.0117,0.0117,0.0119,0.0122,0.0132,0.0112,0.0115,0.0118,0.0079,0.0079,0.0079,0,0,0.0218,0.0214,0.0228,0.023,0.0228,0.0221,0.0224,0.0211,0.0207,0.0209,0.0188,0.0178,0.0165,0.0155,0.0149,0.0166,0.0137,0.0158,0.0193,0.0174,0.0177,0.0179,0.0155,0.0155,0.016,0.016,0.016,0,0.0225,0.0243,0.0231,0.0247,0.0256,0.0233,0.0252,0.0245,0.0233,0.0238,0.0219,0.0202,0.0181,0.0188,0.0191,0.0176,0.0158,0.0179,0.018,0.0182,0.0183,0.0158,0.0158,0.0163,0.0162,0.0162,0.0162,0,0.0258,0.0272,0.0281,0.0297,0.0302,0.0315,0.0308,0.0312,0.03,0.0291,0.0292,0.026,0.0252,0.0238,0.022,0.0223,0.0204,0.0187,0.0171,0.019,0.0162,0.016,0.0166,0.0165,0.0165,0.0164,0,0,0.028,0.0301,0.0306,0.0328,0.0332,0.0346,0.036,0.0373,0.0393,0.0365,0.0385,0.0354,0.0331,0.0321,0.029,0.027,0.0256,0.0237,0.0235,0.0218,0.0211,0.0181,0.0176,0.0238,0.0239,0.0239,0.0185,0,0.0312,0.0356,0.0356,0.0402,0.0425,0.0419,0.0441,0.0447,0.0442,0.0453,0.0415,0.0421,0.0364,0.0365,0.0332,0.0286,0.0255,0.0272,0.0192,0.0189,0.0164,0.0174,0.0192,0.0145,0.0183,0.0183,0.0183,0,0.0349,0.0376,0.0424,0.0468,0.048,0.0504,0.0545,0.0562,0.0564,0.056,0.0544,0.0514,0.0488,0.0433,0.0353,0.0366,0.0293,0.0243,0.024,0.0197,0.0156,0.0132,0.014,0.018,0.018,0.018,0.018,0,0.0383,0.0428,0.0473,0.0487,0.0526,0.0557,0.0581,0.0597,0.0631,0.0633,0.0656,0.0602,0.0593,0.05,0.0386,0.0375,0.0288,0.0259,0.0157,0.0154,0.0147,0.0142,0.0192,0.0192,0.0192,0.0193,0.0193,0,0.0423,0.0462,0.0497,0.0526,0.0597,0.0605,0.0677,0.0691,0.0722,0.0781,0.0717,0.0744,0.061,0.054,0.042,0.0287,0.031,0.0169,0.0142,0.0162,0.016,0.0174,0.0173,0.019,0.0191,0.0191,0.0192,0,0.0456,0.0475,0.0535,0.0589,0.0616,0.0668,0.0753,0.0802,0.0821,0.0896,0.0908,0.0859,0.0777,0.0623,0.0476,0.0343,0.0215,0.0154,0.0182,0.0159,0.0083,0.0085,0.0048,0.0046,0.0045,0.0044,0.0043,0,0.0478,0.051,0.0586,0.0633,0.0665,0.0744,0.0804,0.085,0.0912,0.0977,0.102,0.0962,0.0933,0.0688,0.0461,0.0243,0.0207,0.0092,0.007,0.0093,0.007,0.0074,0.0077,0.0075,0.0075,0.0074,0.0074,0,0.0521,0.0545,0.0597,0.0691,0.0765,0.0856,0.0949,0.1017,0.1086,0.1143,0.1205,0.1189,0.097,0.0753,0.0438,0.0283,0.013,0.0076,0.0103,0.0108,0.0114,0.0093,0.0096,0.007,0.007,0.0071,0.0071,0.0071,0.0556,0.0599,0.0665,0.0756,0.0848,0.0965,0.1046,0.1146,0.1256,0.1351,0.133,0.1303,0.1054,0.066,0.0394,0.0107,0.0121,0.0005,0.0009,0.0012,0.0024,0.0028,-0.0031,-0.0031,-0.0031,-0.0031,-0.0032,0,0.0597,0.0647,0.0729,0.0841,0.0942,0.0987,0.1139,0.1214,0.1347,0.1426,0.146,0.1223,0.098,0.0699,0.0286,0.003,0.0013,-0.0065,-0.0021,-0.0016,-0.0011,0.0,-0.0062,-0.0062,-0.0063,-0.0064,0,0,0.0621,0.0699,0.0738,0.0899,0.0983,0.1119,0.1209,0.1317,0.1401,0.1466,0.1457,0.1405,0.1075,0.0766,0.0424,0.019,0.0141,0.0131,0.0181,0.0278,0.0286,0.0052,0.0079,0,0,0,0,0]}],[{"header":{"parameterUnit":"m.s-1","parameterCategory":2,"la1":30.2991,"la2":30.254,"lo1":-89.0895,"lo2":-89.0444,"dy":0.0017,"dx":0.0017,"nx":28,"ny":28,"refTime":"2023-08-24T03:00:00:Z","depth":"4","parameterNumber":2,"parameterNumberName":"U-component_of_CURRENTS"},"data":[0,0,0,0,0,0,0,0,0,0,0,0,0,0,0,0,0,0,0,0,0,0,0,0,0,0,0,0,0,0,0,0,0,0,0,0,0,0,0,0,0,0,0,0,0,0,0,0,0,0,0,0,0,0,0,0,0,0,0.1437,0.1438,0,0.1488,0.1488,0.1489,0.1536,0.1536,0.1537,0.1538,0.1614,0.1615,0.1616,0,0,0,0,0,0,0,0,0,0,0,0,0,0.1391,0.1392,0.1437,0.1438,0.1439,0.1488,0.1488,0.1489,0.1535,0.1536,0.1537,0.1538,0.1613,0.1615,0.1616,0,0,0,0,0,0,0,0,0,0,0,0,0,0.1422,0.1392,0.1437,0.1469,0.1472,0.1488,0.1488,0.1489,0.1535,0.1536,0.1537,0.1538,0.1613,0.1615,0.1617,0.161,0,0,0.1623,0.1624,0,0,0,0,0,0,0,0,0.1421,0.1424,0.1463,0.1466,0.147,0.1507,0.15,0.1531,0.1535,0.151,0.1538,0.1539,0.158,0.1585,0.1591,0.1613,0.1617,0.1623,0.1625,0.1625,0.1626,0,0,0,0,0,0,0,0.1418,0.1422,0.1456,0.1464,0.1468,0.1484,0.1489,0.1506,0.1539,0.1512,0.1516,0.1523,0.1582,0.1588,0.1593,0.1618,0.1623,0.1625,0.1626,0.1627,0.1739,0.1741,0,0,0,0,0,0,0.1412,0.142,0.1455,0.1458,0.1448,0.1484,0.149,0.1494,0.1538,0.1546,0.1522,0.1525,0.1584,0.159,0.1596,0.1682,0.1625,0.1627,0.1629,0.1737,0.1739,0.1741,0,0,0,0,0,0,0.1411,0.1415,0.1453,0.1441,0.1447,0.1484,0.1488,0.1494,0.1535,0.1545,0.1554,0.156,0.1585,0.1593,0.1645,0.1682,0.1628,0.163,0.1735,0.1738,0.174,0.1796,0,0,0,0,0,0,0.141,0.1414,0.1432,0.144,0.1448,0.1484,0.1487,0.1494,0.1536,0.1541,0.158,0.1586,0.1587,0.1642,0.1647,0.1684,0.1632,0.1733,0.1737,0.174,0.1792,0.18,0.1807,0,0,0,0,0,0.1408,0.1421,0.1432,0.1437,0.1465,0.1485,0.149,0.1518,0.1537,0.1558,0.1591,0.1587,0.1666,0.1645,0.1651,0.1689,0.1732,0.1736,0.1739,0.1789,0.1798,0.1807,0,0,0,0,0,0,0.141,0.1427,0.144,0.1458,0.1482,0.1494,0.152,0.1538,0.1579,0.1597,0.1607,0.1616,0.1674,0.1675,0.1652,0.1731,0.1699,0.1704,0.1734,0.1744,0.1751,0.1741,0.1634,0,0,0,0,0,0.1417,0.1436,0.1451,0.1472,0.1485,0.151,0.1529,0.1549,0.1577,0.1598,0.1624,0.1656,0.1687,0.1712,0.1733,0.1777,0.1779,0.1806,0.1814,0.182,0.1817,0.1864,0.1875,0.1754,0.1754,0.1754,0,0,0.1421,0.1438,0.1447,0.1476,0.1497,0.1518,0.1525,0.1563,0.1592,0.1599,0.1658,0.1684,0.1705,0.1755,0.1781,0.1766,0.1857,0.1825,0.183,0.1823,0.1869,0.1881,0.1891,0.1756,0.1756,0.1756,0,0,0.1432,0.1458,0.1475,0.1495,0.1535,0.155,0.1569,0.1601,0.1631,0.1683,0.1699,0.1748,0.1794,0.1816,0.1832,0.1894,0.1893,0.1911,0.1945,0.1992,0.2002,0.2011,0.2028,0.2038,0.1917,0.1918,0.1918,0,0.1444,0.1461,0.1485,0.1506,0.153,0.1568,0.1591,0.1623,0.1672,0.17,0.1712,0.1798,0.1819,0.1877,0.1903,0.1911,0.1931,0.1908,0.2001,0.201,0.2018,0.2034,0.2044,0.1921,0.192,0.192,0.192,0,0.1456,0.1482,0.1497,0.1536,0.1565,0.1596,0.1634,0.1678,0.1723,0.1752,0.1829,0.1863,0.1915,0.1935,0.194,0.2014,0.2006,0.2003,0.1975,0.2034,0.2046,0.2056,0.1925,0.1924,0.1923,0.1922,0,0,0.1446,0.1495,0.1504,0.1523,0.1586,0.1603,0.1665,0.172,0.1768,0.1825,0.1887,0.1948,0.1979,0.1999,0.2022,0.2062,0.2139,0.2065,0.2066,0.2077,0.2235,0.2087,0.2083,0.2164,0.2166,0.2167,0.2219,0,0.1454,0.1488,0.152,0.1562,0.158,0.1637,0.1688,0.1748,0.1811,0.188,0.1934,0.2003,0.2001,0.2048,0.2089,0.2134,0.2168,0.2124,0.2181,0.2181,0.2039,0.2091,0.2174,0.2227,0.2229,0.223,0.2231,0,0.1449,0.1474,0.1514,0.157,0.1587,0.1629,0.1721,0.1775,0.1877,0.193,0.2008,0.2054,0.2135,0.2125,0.2217,0.2197,0.222,0.2239,0.2242,0.2087,0.2052,0.2157,0.2249,0.2247,0.2246,0.2245,0.2244,0,0.141,0.1466,0.1501,0.152,0.1595,0.1639,0.1698,0.1797,0.1852,0.1979,0.2037,0.2126,0.2196,0.2241,0.2287,0.2272,0.2372,0.2353,0.2232,0.2222,0.2314,0.2304,0.2408,0.2408,0.2408,0.2408,0.2407,0,0.1387,0.1411,0.149,0.1504,0.1561,0.1628,0.171,0.1784,0.1895,0.1961,0.207,0.2127,0.2235,0.2299,0.2317,0.23,0.24,0.2237,0.2229,0.2335,0.2327,0.232,0.2309,0.241,0.2409,0.2409,0.2408,0,0.1325,0.138,0.1419,0.1507,0.1543,0.1589,0.1708,0.1755,0.1884,0.1979,0.2027,0.216,0.2244,0.2314,0.2397,0.2328,0.2334,0.2302,0.2408,0.2405,0.2141,0.2133,0.216,0.2155,0.2151,0.2148,0.2145,0,0.1291,0.1308,0.1409,0.1439,0.1485,0.1566,0.1615,0.1742,0.1794,0.1972,0.2,0.2136,0.2208,0.2205,0.2286,0.2301,0.2275,0.2249,0.2184,0.2128,0.2119,0.2117,0.2114,0.2139,0.2138,0.2137,0.2136,0,0.1224,0.1279,0.1312,0.1374,0.1431,0.148,0.1565,0.1589,0.1736,0.1868,0.1934,0.1979,0.2067,0.2117,0.2151,0.2154,0.2248,0.2207,0.2214,0.2153,0.2103,0.2097,0.2099,0.2122,0.2124,0.2125,0.2126,0,0.1181,0.1188,0.1244,0.1287,0.1354,0.137,0.1427,0.1485,0.1554,0.1751,0.1768,0.1917,0.205,0.2041,0.2069,0.2066,0.2026,0.1941,0.1962,0.1978,0.1892,0.18,0.1719,0,0,0,0,0,0.113,0.1119,0.1146,0.1182,0.1242,0.1285,0.1377,0.1436,0.1584,0.1587,0.1673,0.1748,0.18,0.1871,0.1832,0.1972,0.2024,0.1913,0.1934,0.2045,0.2061,0.1976,0,0,0,0,0,0,0.109,0.111,0.1107,0.1084,0.1097,0.1145,0.1204,0.13,0.131,0.1474,0.1519,0.1638,0.1722,0.182,0.1803,0.1821,0.1793,0.2005,0.1999,0.2036,0.2051,0.2064,0.1981,0,0,0,0,0]},{"header":{"parameterUnit":"m.s-1","parameterCategory":2,"la1":30.2991,"la2":30.254,"lo1":-89.0895,"lo2":-89.0444,"dy":0.0017,"dx":0.0017,"nx":28,"ny":28,"refTime":"2023-08-24T03:00:00:Z","depth":"4","parameterNumber":3,"parameterNumberName":"V-component_of_CURRENTS"},"data":[0,0,0,0,0,0,0,0,0,0,0,0,0,0,0,0,0,0,0,0,0,0,0,0,0,0,0,0,0,0,0,0,0,0,0,0,0,0,0,0,0,0,0,0,0,0,0,0,0,0,0,0,0,0,0,0,0,0,0.0157,0.0157,0,0.0146,0.0146,0.0146,0.014,0.014,0.014,0.014,0.0127,0.0126,0.0126,0,0,0,0,0,0,0,0,0,0,0,0,0,0.0152,0.0152,0.0157,0.0157,0.0157,0.0146,0.0146,0.0146,0.014,0.014,0.014,0.014,0.0127,0.0126,0.0126,0,0,0,0,0,0,0,0,0,0,0,0,0,0.0149,0.0152,0.0157,0.0153,0.0153,0.0146,0.0146,0.0146,0.014,0.014,0.014,0.014,0.0127,0.0126,0.0126,0.0121,0,0,0.0124,0.0124,0,0,0,0,0,0,0,0,0.0149,0.0149,0.0154,0.0153,0.0153,0.0145,0.014,0.0138,0.014,0.0144,0.014,0.014,0.0133,0.0132,0.0129,0.012,0.012,0.0124,0.0124,0.0123,0.0123,0,0,0,0,0,0,0,0.0149,0.0149,0.0152,0.0154,0.0153,0.0145,0.0145,0.0139,0.0138,0.0144,0.0144,0.0143,0.0133,0.0129,0.0129,0.0119,0.0124,0.0123,0.0123,0.0123,0.0113,0.0113,0,0,0,0,0,0,0.0153,0.0149,0.0153,0.0152,0.0152,0.0145,0.0145,0.0147,0.0138,0.0137,0.0143,0.0143,0.013,0.0129,0.0128,0.0135,0.0123,0.0123,0.0122,0.0113,0.0113,0.0113,0,0,0,0,0,0,0.0153,0.0153,0.0153,0.0151,0.015,0.0145,0.0148,0.0147,0.0148,0.0138,0.0136,0.0146,0.013,0.0129,0.0129,0.0134,0.0123,0.0122,0.0113,0.0113,0.0113,0.0141,0,0,0,0,0,0,0.0153,0.0153,0.0158,0.0151,0.015,0.0156,0.0148,0.0147,0.0148,0.0147,0.0139,0.0138,0.013,0.013,0.0129,0.0133,0.0122,0.0113,0.0113,0.0113,0.014,0.0142,0.0144,0,0,0,0,0,0.0153,0.016,0.0158,0.0159,0.0157,0.0156,0.0155,0.0151,0.0148,0.0151,0.0146,0.0138,0.013,0.013,0.0128,0.0133,0.0112,0.0113,0.0113,0.0139,0.0142,0.0144,0,0,0,0,0,0,0.0159,0.016,0.0158,0.0165,0.0164,0.0156,0.0159,0.0154,0.0152,0.0153,0.0142,0.014,0.0142,0.0133,0.0133,0.0129,0.0119,0.0119,0.014,0.0142,0.0144,0.0153,0.0121,0,0,0,0,0,0.0163,0.017,0.0166,0.0172,0.0173,0.0167,0.0166,0.0163,0.0159,0.0158,0.0152,0.0145,0.014,0.0138,0.0132,0.0132,0.0111,0.0132,0.0134,0.0136,0.0141,0.0113,0.0113,0.0114,0.0114,0.0114,0,0,0.0167,0.0168,0.0172,0.0174,0.0173,0.018,0.0167,0.0169,0.0176,0.0157,0.0165,0.0152,0.0141,0.0142,0.0141,0.0136,0.0123,0.0136,0.0138,0.0142,0.0113,0.0113,0.0113,0.0114,0.0114,0.0114,0,0,0.0179,0.018,0.0191,0.0193,0.0195,0.0191,0.0194,0.0189,0.0189,0.0192,0.0179,0.017,0.0165,0.0155,0.015,0.0158,0.0134,0.0156,0.0175,0.0147,0.0147,0.0147,0.0114,0.011,0.0157,0.0157,0.0157,0,0.0184,0.0198,0.0193,0.0205,0.0213,0.0199,0.0214,0.021,0.0206,0.0208,0.02,0.0185,0.0171,0.017,0.0172,0.0163,0.0143,0.0168,0.015,0.0149,0.0148,0.0115,0.0111,0.0159,0.0159,0.0159,0.0158,0,0.0205,0.0217,0.0224,0.0237,0.0243,0.0253,0.0251,0.0254,0.0249,0.0243,0.024,0.0217,0.0209,0.0199,0.0189,0.0179,0.0164,0.0156,0.0145,0.015,0.0114,0.0109,0.0161,0.016,0.016,0.016,0,0,0.0215,0.0236,0.024,0.0258,0.0264,0.0275,0.0285,0.0293,0.0305,0.0285,0.0296,0.0271,0.0253,0.0246,0.0225,0.0198,0.0167,0.0178,0.0176,0.0148,0.0103,0.0093,0.0087,0.0157,0.0156,0.0156,0.0078,0,0.0236,0.0268,0.0272,0.0307,0.0325,0.0324,0.0339,0.0342,0.0338,0.0342,0.0308,0.0309,0.0273,0.0272,0.0238,0.0192,0.0157,0.0189,0.0101,0.0098,0.0091,0.0082,0.0154,0.0074,0.0073,0.0072,0.0072,0,0.0258,0.0279,0.0316,0.0353,0.0362,0.0381,0.041,0.0423,0.0417,0.0412,0.0393,0.0368,0.0331,0.0301,0.0211,0.0234,0.0172,0.0126,0.0121,0.0102,0.008,0.0069,0.0062,0.0063,0.0064,0.0064,0.0065,0,0.0277,0.0314,0.0349,0.036,0.0393,0.0417,0.0439,0.0446,0.0469,0.046,0.0467,0.0413,0.0396,0.0311,0.0213,0.0214,0.0107,0.0095,0.0022,0.002,0.004,0.0041,0.0024,0.0024,0.0024,0.0025,0.0025,0,0.03,0.0331,0.0365,0.0388,0.0442,0.0452,0.0507,0.0515,0.0532,0.0563,0.051,0.0509,0.0399,0.0325,0.0226,0.0109,0.0112,0.0023,0.0001,0.0052,0.0056,0.0035,0.0038,0.0022,0.0022,0.0023,0.0023,0,0.0316,0.0335,0.0383,0.043,0.0454,0.0495,0.0566,0.0598,0.0605,0.0643,0.0645,0.0583,0.0486,0.0361,0.0222,0.0135,0.0019,-0.0027,0.0034,0.0017,-0.0055,-0.005,-0.0113,-0.0114,-0.0114,-0.0115,-0.0116,0,0.0326,0.035,0.0419,0.0457,0.0485,0.0551,0.0599,0.0635,0.0673,0.0688,0.0704,0.0627,0.0568,0.0362,0.0222,0.0025,-0.0005,-0.0071,-0.0063,-0.0053,-0.0069,-0.0063,-0.0057,-0.0117,-0.0117,-0.0117,-0.0117,0,0.0346,0.037,0.0412,0.049,0.0552,0.0623,0.0695,0.0727,0.0768,0.0775,0.0756,0.0653,0.0539,0.037,0.0214,0.0072,-0.003,-0.008,-0.008,-0.0073,-0.0059,-0.0072,-0.0066,-0.012,-0.012,-0.012,-0.0119,0,0.0363,0.0394,0.0451,0.0521,0.0601,0.0674,0.0711,0.0758,0.0797,0.0811,0.0802,0.0679,0.0611,0.0394,0.0252,0.011,0.0072,0.0023,0.0018,0.0019,0.0078,0.0116,0.0088,0,0,0,0,0,0.0376,0.0414,0.0477,0.0556,0.0636,0.0684,0.0766,0.0793,0.0833,0.083,0.0821,0.0717,0.0511,0.0417,0.0274,0.0221,0.0036,0.0047,-0.0026,-0.0136,-0.0133,-0.0087,0,0,0,0,0,0,0.0385,0.0444,0.0475,0.0576,0.063,0.0722,0.0775,0.0801,0.08,0.0814,0.0706,0.067,0.0465,0.0591,0.0267,0.0224,0.0155,-0.0045,-0.0049,-0.0138,-0.0135,-0.0132,-0.0084,0,0,0,0,0]}]]